^^
 
Daily Summary for June 17, 2024 Units:  English    Metric   Both
Daily Weekly Monthly Yearly Custom
  Current: High: Low: Average:
Temperature: 52.6 °F 63.3 °F 52.5 °F 56.5 °F
Dew Point: 43.8 °F 43.9 °F 42.5 °F 43.3 °F
Humidity: 72% 72% 49% 62%
Wind Speed: 0mph 0mph 0mph 0mph
Wind Gust: 0mph 0mph - -
WindCalm - -
Pressure: 30.0 in 30.0 in 29.9 in -
Precipitation: 0.000 in      
Historical Graphs
 
 
Tabular Data for June 17, 2024
Time Temperature Dew Point Pressure Wind Wind Speed Wind Gust Humidity Rainfall Rate (Hourly) solar
00:04 63.3 °F 43.8 °F 30.0 in Calm     49% 0.000 in 0.00 W/m2
00:09 63.1 °F 43.6 °F 29.9 in Calm     49% 0.000 in 0.00 W/m2
00:14 62.8 °F 43.3 °F 29.9 in Calm     49% 0.000 in 0.00 W/m2
00:19 62.5 °F 43.5 °F 29.9 in Calm     50% 0.000 in 0.00 W/m2
00:24 62.3 °F 43.7 °F 29.9 in Calm     51% 0.000 in 0.00 W/m2
00:29 62.0 °F 43.7 °F 29.9 in Calm     51% 0.000 in 0.00 W/m2
00:34 61.7 °F 43.4 °F 29.9 in Calm     51% 0.000 in 0.00 W/m2
00:38 61.5 °F 43.6 °F 29.9 in Calm     52% 0.000 in 0.00 W/m2
00:44 61.3 °F 43.5 °F 29.9 in Calm     52% 0.000 in 0.00 W/m2
00:49 61.0 °F 43.6 °F 29.9 in Calm     53% 0.000 in 0.00 W/m2
00:54 60.7 °F 43.5 °F 29.9 in Calm     53% 0.000 in 0.00 W/m2
00:59 60.5 °F 43.7 °F 29.9 in Calm     54% 0.000 in 0.00 W/m2
01:04 60.4 °F 43.7 °F 29.9 in Calm     54% 0.000 in 0.00 W/m2
01:09 60.2 °F 43.5 °F 29.9 in Calm     54% 0.000 in 0.00 W/m2
01:14 60.1 °F 43.4 °F 29.9 in Calm     54% 0.000 in 0.00 W/m2
01:19 59.8 °F 43.6 °F 29.9 in Calm     55% 0.000 in 0.00 W/m2
01:24 59.6 °F 43.4 °F 29.9 in Calm     55% 0.000 in 0.00 W/m2
01:29 59.5 °F 43.7 °F 29.9 in Calm     56% 0.000 in 0.00 W/m2
01:34 59.3 °F 43.6 °F 29.9 in Calm     56% 0.000 in 0.00 W/m2
01:39 59.1 °F 43.9 °F 29.9 in Calm     57% 0.000 in 0.00 W/m2
01:44 59.0 °F 43.8 °F 29.9 in Calm     57% 0.000 in 0.00 W/m2
01:49 58.9 °F 43.7 °F 29.9 in Calm     57% 0.000 in 0.00 W/m2
01:54 58.7 °F 43.9 °F 29.9 in Calm     58% 0.000 in 0.00 W/m2
01:59 58.6 °F 43.9 °F 29.9 in Calm     58% 0.000 in 0.00 W/m2
02:04 58.5 °F 43.8 °F 29.9 in Calm     58% 0.000 in 0.00 W/m2
02:09 58.4 °F 43.7 °F 29.9 in Calm     58% 0.000 in 0.00 W/m2
02:14 58.3 °F 43.6 °F 29.9 in Calm     58% 0.000 in 0.00 W/m2
02:19 58.2 °F 43.5 °F 29.9 in Calm     58% 0.000 in 0.00 W/m2
02:24 58.1 °F 43.7 °F 29.9 in Calm     59% 0.000 in 0.00 W/m2
02:29 58.0 °F 43.7 °F 29.9 in Calm     59% 0.000 in 0.00 W/m2
02:34 57.8 °F 43.6 °F 29.9 in Calm     59% 0.000 in 0.00 W/m2
02:39 57.7 °F 43.7 °F 29.9 in Calm     60% 0.000 in 0.00 W/m2
02:44 57.5 °F 43.6 °F 29.9 in Calm     60% 0.000 in 0.00 W/m2
02:49 57.4 °F 43.5 °F 29.9 in Calm     60% 0.000 in 0.00 W/m2
02:54 57.3 °F 43.5 °F 29.9 in Calm     60% 0.000 in 0.00 W/m2
02:59 57.1 °F 43.3 °F 29.9 in Calm     60% 0.000 in 0.00 W/m2
03:04 57.0 °F 43.2 °F 29.9 in Calm     60% 0.000 in 0.00 W/m2
03:09 56.9 °F 43.1 °F 29.9 in Calm     60% 0.000 in 0.00 W/m2
03:14 56.7 °F 43.0 °F 29.9 in Calm     60% 0.000 in 0.00 W/m2
03:19 56.6 °F 43.3 °F 29.9 in Calm     61% 0.000 in 0.00 W/m2
03:24 56.5 °F 43.2 °F 29.9 in Calm     61% 0.000 in 0.00 W/m2
03:29 56.4 °F 43.1 °F 29.9 in Calm     61% 0.000 in 0.00 W/m2
03:34 56.2 °F 43.3 °F 29.9 in Calm     62% 0.000 in 0.00 W/m2
03:39 56.0 °F 43.2 °F 29.9 in Calm     62% 0.000 in 0.00 W/m2
03:44 55.9 °F 43.1 °F 29.9 in Calm     62% 0.000 in 0.00 W/m2
03:49 55.8 °F 43.2 °F 29.9 in Calm     63% 0.000 in 0.00 W/m2
03:54 55.6 °F 43.2 °F 29.9 in Calm     63% 0.000 in 0.00 W/m2
03:59 55.4 °F 43.3 °F 29.9 in Calm     64% 0.000 in 0.00 W/m2
04:04 55.3 °F 43.3 °F 29.9 in Calm     64% 0.000 in 0.00 W/m2
04:09 55.1 °F 43.1 °F 29.9 in Calm     64% 0.000 in 0.00 W/m2
04:14 55.1 °F 43.5 °F 29.9 in Calm     65% 0.000 in 0.00 W/m2
04:19 55.0 °F 43.1 °F 29.9 in Calm     64% 0.000 in 0.00 W/m2
04:24 54.9 °F 43.2 °F 29.9 in Calm     65% 0.000 in 0.00 W/m2
04:29 54.7 °F 43.2 °F 29.9 in Calm     65% 0.000 in 0.00 W/m2
04:34 54.6 °F 43.1 °F 29.9 in Calm     65% 0.000 in 0.00 W/m2
04:39 54.4 °F 42.9 °F 29.9 in Calm     65% 0.000 in 0.00 W/m2
04:44 54.3 °F 42.8 °F 29.9 in Calm     65% 0.000 in 0.00 W/m2
04:49 54.2 °F 42.7 °F 29.9 in Calm     65% 0.000 in 0.00 W/m2
04:54 54.1 °F 42.6 °F 29.9 in Calm     65% 0.000 in 0.00 W/m2
04:59 54.0 °F 42.7 °F 30.0 in Calm     66% 0.000 in 0.00 W/m2
05:04 53.8 °F 42.7 °F 30.0 in Calm     66% 0.000 in 0.00 W/m2
05:09 53.7 °F 43.0 °F 30.0 in Calm     67% 0.000 in 0.00 W/m2
05:14 53.6 °F 43.3 °F 30.0 in Calm     68% 0.000 in 0.00 W/m2
05:19 53.6 °F 43.3 °F 30.0 in Calm     68% 0.000 in 0.00 W/m2
05:24 53.6 °F 42.9 °F 30.0 in Calm     67% 0.000 in 0.00 W/m2
05:29 53.5 °F 42.8 °F 30.0 in Calm     67% 0.000 in 0.00 W/m2
05:34 53.3 °F 43.0 °F 30.0 in Calm     68% 0.000 in 0.00 W/m2
05:39 53.3 °F 42.9 °F 30.0 in Calm     68% 0.000 in 0.00 W/m2
05:44 53.2 °F 42.5 °F 30.0 in Calm     67% 0.000 in 0.00 W/m2
05:49 53.1 °F 43.6 °F 30.0 in Calm     70% 0.000 in 5.00 W/m2
05:54 53.0 °F 43.1 °F 30.0 in Calm     69% 0.000 in 5.00 W/m2
05:59 53.0 °F 43.1 °F 30.0 in Calm     69% 0.000 in 7.00 W/m2
06:04 53.0 °F 42.7 °F 30.0 in Calm     68% 0.000 in 9.00 W/m2
06:09 52.9 °F 42.6 °F 30.0 in Calm     68% 0.000 in 9.00 W/m2
06:14 52.8 °F 42.5 °F 30.0 in Calm     68% 0.000 in 9.00 W/m2
06:19 52.7 °F 42.8 °F 30.0 in Calm     69% 0.000 in 11.00 W/m2
06:24 52.7 °F 42.8 °F 30.0 in Calm     69% 0.000 in 11.00 W/m2
06:29 52.7 °F 42.8 °F 30.0 in Calm     69% 0.000 in 12.00 W/m2
06:34 52.6 °F 43.1 °F 30.0 in Calm     70% 0.000 in 14.00 W/m2
06:39 52.5 °F 43.4 °F 30.0 in Calm     71% 0.000 in 16.00 W/m2
06:44 52.5 °F 43.4 °F 30.0 in Calm     71% 0.000 in 16.00 W/m2
06:49 52.5 °F 43.4 °F 30.0 in Calm     71% 0.000 in 18.00 W/m2
06:54 52.5 °F 43.4 °F 30.0 in Calm     71% 0.000 in 19.00 W/m2
06:59 52.5 °F 43.4 °F 30.0 in Calm     71% 0.000 in 21.00 W/m2
07:04 52.6 °F 43.5 °F 30.0 in Calm     71% 0.000 in 21.00 W/m2
07:09 52.6 °F 43.8 °F 30.0 in Calm     72% 0.000 in 21.00 W/m2
El Dorado Weather
Compliments of Weather Underground - 2 mb